Temp
12 12 12 12 12 12 12 12 12 13 15 14 15 15 16 17 16 16 16 17 17 17 18 18 19 20 20 19 19 17 16 16 16 16 15 15 15 14 14 15 15 15 15 16
11 11 13 12 12 13 13 13 13 14 14 14 13 13 15 15 16 16 17 17 17 17 18 18 17 18 18 18 17 15 16 15 15 15 15 15 14 13 13 13 13 14 14 14
11 11 12 12 11 12 12 12 13 13 12 13 13 14 16 17 17 17 17 17 18 18 18 18 17 16 16 16 15 15 14 14 14 15 15 14 13 12 11 12 12 13 13 13
12 13 11 10 11 11 11 12 12 12 11 11 12 12 15 16 17 17 16 17 17 17 17 19 17 15 15 16 15 14 14 14 15 16 15 15 12 12 11 12 12 12 12 12
11 10 10 11 11 10 11 12 11 11 11 11 12 11 13 14 15 16 16 16 16 17 17 17 17 17 16 15 15 14 14 14 15 15 17 14 12 13 12 11 11 11 10 11
10 10 11 11 11 11 12 11 11 11 11 11 12 12 14 15 15 15 16 16 15 16 16 17 16 15 13 14 14 14 13 14 15 14 15 14 14 12 11 10 10 9 10 10
11 11 11 11 10 10 11 10 11 11 11 12 12 12 14 16 16 17 16 17 16 15 15 15 14 13 12 12 12 12 13 13 13 14 14 14 15 14 13 10 10 9 9 9
9 9 11 11 11 10 10 11 11 11 11 12 11 12 14 14 16 16 15 16 15 15 15 14 14 14 13 12 11 12 12 12 12 13 12 13 14 13 12 11 11 10 9 9
9 10 10 9 10 12 10 10 12 11 12 11 12 13 14 15 15 15 15 16 15 15 14 13 13 14 13 11 12 12 12 11 12 12 13 12 13 13 12 10 10 9 9 8
10 9 9 10 10 10 11 11 10 10 10 11 12 12 13 15 15 14 14 16 15 14 13 13 13 13 12 12 11 11 11 11 11 12 12 12 12 12 11 10 9 9 8 7
10 9 9 9 10 11 10 10 10 10 11 11 12 14 13 14 15 14 15 15 14 13 13 13 13 11 11 10 10 10 10 11 11 11 12 11 11 10 10 9 8 8 7 7
11 10 9 9 11 12 12 12 12 10 11 10 9 13 15 14 13 14 14 14 12 11 11 11 10 9 9 9 9 9 9 10 10 11 10 10 10 9 9 8 7 7 7 6
10 10 8 10 10 11 10 10 12 11 12 10 10 13 15 14 14 15 15 14 12 10 9 8 9 9 9 8 8 8 8 8 9 9 9 8 8 8 8 7 6 6 5 5
11 10 10 12 13 11 10 10 10 9 10 12 11 12 14 15 15 14 15 14 12 10 9 9 9 8 8 7 7 7 6 8 8 8 8 8 7 7 7 6 5 5 4 4
10 10 10 11 11 11 9 10 10 10 11 10 13 13 14 15 14 14 13 13 13 10 9 9 8 8 7 7 6 6 6 7 8 7 7 7 6 6 5 5 4 4 4 3
10 10 10 10 11 10 10 10 10 10 10 11 12 12 15 14 13 13 12 13 13 10 10 9 8 7 7 6 5 5 5 6 7 7 6 6 5 5 4 4 3 3 3 3
10 10 10 11 12 10 11 11 11 11 11 11 11 13 14 13 12 11 11 12 12 11 10 8 8 7 6 5 5 5 5 7 7 6 5 5 4 4 3 3 3 3 2 2
10 9 10 11 11 13 13 13 12 11 12 13 13 14 14 13 12 12 11 9 11 11 9 8 8 6 5 5 5 5 5 5 6 4 4 4 4 3 3 3 2 2 1 1
12 10 11 11 12 13 13 13 12 12 12 13 13 13 14 12 11 12 8 8 10 10 9 8 7 6 5 5 4 5 4 4 4 3 3 3 3 3 2 2 2 1 1 0
11 11 11 11 12 14 14 13 13 14 14 13 13 13 13 13 13 12 7 6 7 7 7 6 5 5 4 3 4 4 3 3 3 3 3 3 3 3 2 1 1 0 0 -0
10 10 11 11 12 12 13 12 13 14 15 11 13 14 11 12 11 7 5 5 5 5 5 4 5 4 3 3 4 3 2 2 3 3 2 2 2 2 1 1 0 -0 -1 -1
11 10 11 12 12 11 13 12 13 13 11 11 11 10 8 6 5 5 4 4 4 3 3 3 3 2 2 4 4 2 1 2 2 2 2 2 1 1 0 0 -1 -1 -2 -2
10 11 12 11 11 12 12 12 12 10 10 11 10 8 7 5 5 4 3 3 3 3 2 2 2 1 2 3 4 1 0 2 2 2 1 0 0 -0 -1 -1 -2 -2 -3 -3
10 9 11 12 13 11 11 11 11 7 8 8 7 6 6 4 4 3 3 3 2 2 2 2 2 1 -0 2 2 2 2 2 2 1 0 -0 -0 -1 -2 -2 -2 -3 -3 -4
10 10 11 11 11 10 11 11 9 6 5 5 5 6 5 4 3 3 2 2 2 2 2 2 1 -0 -1 1 1 1 2 2 1 0 -1 -1 -2 -2 -2 -2 -3 -4 -4 -4
9 11 12 13 13 12 12 9 6 6 5 5 5 5 5 5 4 3 2 2 1 1 0 -0 -1 -1 -1 1 1 1 1 2 1 -1 -2 -2 -2 -2 -3 -3 -3 -3 -4 -4
Height
784 786 785 785 788 788 790 792 790 787 779 780 770 757 754 750 750 747 745 742 740 739 738 736 735 737 738 740 742 743 747 749 751 757 764 773 779 785 789 792 795 799 801 803
788 785 778 783 784 786 785 787 783 779 778 779 772 747 749 745 739 736 734 734 734 733 732 731 730 731 733 735 737 740 745 747 750 753 759 766 776 783 787 792 795 798 800 802
780 780 778 781 785 785 784 784 783 785 783 779 774 738 726 720 721 723 723 721 720 721 723 724 726 726 727 731 732 737 739 743 749 751 757 764 775 782 788 793 795 798 800 802
775 772 778 786 786 787 786 783 783 785 789 782 775 752 725 721 718 716 717 713 711 712 713 713 717 720 721 723 729 734 738 740 745 751 755 759 767 776 783 788 793 797 800 802
773 776 779 779 776 785 781 780 782 782 784 784 771 780 726 729 723 716 708 703 703 702 703 705 707 710 713 717 724 731 737 740 744 749 752 758 766 772 779 787 791 796 799 801
772 771 771 772 771 773 774 782 781 781 780 770 760 767 712 720 716 712 703 697 700 697 695 696 699 704 707 714 721 727 734 738 742 747 751 755 761 770 777 784 790 795 797 800
762 762 766 769 774 774 772 785 778 776 771 756 751 761 717 713 708 702 698 691 692 692 693 695 697 700 702 708 714 722 729 735 740 746 750 756 760 767 773 781 787 791 794 798
773 771 762 763 763 766 770 766 765 761 758 747 753 738 717 708 699 694 696 692 689 688 687 688 690 694 695 701 708 716 724 731 737 743 749 756 761 766 773 780 786 789 792 797
767 764 762 763 762 762 769 765 753 761 753 757 738 723 710 702 697 697 694 686 683 680 681 683 685 689 692 697 702 709 719 728 735 740 747 753 760 766 773 782 786 788 791 795
762 767 760 758 759 759 760 758 763 762 756 742 730 727 711 699 696 695 691 683 680 677 676 678 682 686 691 695 701 710 718 725 733 741 747 753 760 768 775 781 784 788 791 795
759 766 764 759 753 745 756 758 755 753 746 734 729 708 697 690 691 694 688 683 681 677 675 674 678 685 692 696 700 708 717 724 734 741 748 754 761 768 775 780 785 788 791 794
749 756 755 751 736 734 735 736 736 741 735 738 744 699 687 691 694 689 685 680 681 681 678 676 678 682 690 697 703 709 716 724 734 743 750 756 762 767 773 779 785 788 791 794
747 751 758 743 739 734 736 727 723 724 725 724 731 695 682 687 685 682 681 677 682 685 683 683 684 686 691 698 705 711 717 726 734 744 752 758 763 768 773 778 784 788 791 793
739 743 740 720 709 720 723 718 720 727 718 707 702 694 689 681 678 681 679 679 680 684 686 687 687 689 694 699 705 713 720 727 736 745 753 759 765 769 773 778 784 788 790 793
741 734 732 720 711 715 720 710 713 714 707 712 685 685 675 680 680 681 683 678 678 683 687 689 691 694 698 703 709 716 722 730 737 746 754 761 767 771 775 780 784 787 790 792
733 726 726 715 710 708 704 698 701 701 700 696 696 684 675 676 679 680 683 680 674 679 684 688 692 696 700 705 712 719 726 733 739 749 756 762 768 772 776 780 783 786 789 791
729 727 722 697 696 696 687 680 680 683 686 690 693 665 672 675 678 681 684 678 673 675 682 688 693 698 703 708 713 721 729 736 743 750 758 764 770 773 777 780 783 786 789 791
720 728 723 704 699 675 668 665 666 670 671 674 673 671 670 675 679 676 677 680 674 677 682 688 695 701 707 712 719 724 731 738 746 754 761 767 771 774 777 780 783 786 788 790
708 718 713 704 692 676 668 662 665 669 665 664 666 665 666 675 677 670 677 678 677 678 683 689 696 703 709 715 722 727 736 743 750 757 763 768 771 774 778 780 783 786 788 789
706 710 712 710 698 677 670 665 662 660 656 655 656 659 667 671 676 671 680 681 680 682 687 692 699 706 713 721 726 730 740 748 755 760 765 769 772 775 777 781 784 786 787 788
710 711 708 707 700 684 670 669 665 664 664 660 651 657 670 670 677 682 687 687 687 690 692 697 704 711 718 723 727 736 745 752 757 762 767 770 773 776 779 782 783 785 787 787
702 706 706 696 696 700 670 672 671 666 664 663 658 664 674 685 691 694 696 696 695 697 701 705 709 716 723 728 732 742 749 755 760 764 768 772 775 778 780 782 784 786 786 785
701 692 691 695 687 671 670 669 666 667 667 664 664 667 672 684 693 698 701 703 702 704 707 712 715 721 730 735 738 744 753 758 762 766 770 773 776 779 782 784 785 785 784 783
689 690 688 682 669 671 667 666 668 672 668 668 669 673 677 685 693 698 702 705 707 712 715 718 722 728 735 739 743 748 755 761 765 768 772 776 779 781 783 784 784 784 783 782
686 685 680 682 670 668 664 667 670 675 673 672 673 676 682 685 694 698 705 709 714 719 720 723 727 733 739 744 749 755 760 764 768 772 775 778 781 782 783 783 783 782 781 780
683 674 674 670 662 664 665 669 673 674 677 677 678 684 689 690 694 702 710 716 721 723 725 728 734 738 745 750 756 761 765 768 770 774 778 780 781 782 782 782 781 781 779 778
Wind_Speed
1 5 9 11 6 5 1 3 7 5 8 10 16 22 20 18 16 17 15 15 15 13 14 20 22 18 16 17 17 18 22 27 34 36 34 29 28 25 24 24 23 21 20 17
3 10 11 1 8 10 11 13 15 10 6 8 13 28 18 18 20 19 20 17 16 14 11 12 14 14 18 20 17 19 21 29 33 36 29 33 33 26 27 24 24 22 21 18
5 2 2 10 6 9 11 12 13 13 8 13 15 24 16 15 22 21 21 21 21 20 18 16 12 18 19 20 21 22 25 29 30 35 34 34 28 29 25 25 25 22 20 18
9 9 6 4 6 8 15 5 11 13 7 7 2 10 9 8 14 13 12 15 18 19 18 18 13 13 21 25 22 21 27 32 35 36 37 40 31 25 22 31 26 23 19 17
4 6 5 12 11 7 6 5 6 8 8 8 13 7 6 2 6 10 11 15 16 16 17 18 16 21 25 26 26 26 29 32 36 39 39 37 27 23 33 29 27 23 19 16
6 2 6 8 7 13 3 2 8 2 5 8 11 11 18 5 5 5 6 11 10 13 14 16 18 17 17 25 26 29 30 31 37 37 36 38 37 33 35 30 27 23 20 17
5 15 5 4 3 1 9 3 2 4 6 7 7 11 20 10 21 20 16 15 10 11 9 10 11 12 21 25 29 29 30 30 34 35 36 35 36 37 38 34 30 26 22 17
4 5 11 8 14 7 11 11 5 5 5 4 4 8 7 11 14 14 10 13 9 8 8 11 14 13 23 26 29 29 30 29 32 33 34 33 34 37 36 33 28 23 20 17
4 4 1 7 5 7 4 10 10 5 11 6 5 10 10 13 11 5 7 11 13 11 10 12 12 16 21 25 30 31 29 28 33 34 33 31 34 36 34 28 24 21 19 16
2 5 5 2 4 5 6 1 3 5 5 8 6 7 11 9 5 4 8 13 14 11 9 9 11 14 20 24 26 26 28 31 33 31 31 32 32 33 30 26 23 21 18 15
5 5 2 4 9 11 8 6 5 3 4 3 3 6 5 11 4 4 9 10 12 12 10 10 11 13 15 18 26 28 30 34 32 31 31 33 33 31 28 25 22 19 16 13
8 3 5 9 7 15 14 15 18 9 8 4 2 15 6 5 4 7 8 9 9 8 5 7 11 16 20 20 22 25 29 33 32 32 33 33 33 31 28 24 21 17 15 12
9 4 3 5 1 4 8 14 20 16 8 16 8 10 2 3 3 9 13 10 5 3 3 7 11 12 17 20 21 24 30 33 35 35 35 33 32 30 27 24 20 16 14 11
10 5 8 10 12 2 6 16 18 16 6 14 19 20 18 19 18 14 14 12 4 4 4 6 9 11 16 20 23 24 28 36 37 36 35 33 30 28 25 22 19 15 12 9
8 7 12 19 23 18 18 12 19 19 22 12 13 18 19 14 12 10 10 14 10 6 8 8 9 11 15 20 22 25 30 36 37 35 33 31 28 25 23 20 17 14 11 8
6 5 4 17 19 21 22 23 21 21 21 21 19 26 16 2 3 9 12 18 14 9 9 9 11 13 14 20 22 25 28 32 35 33 32 29 27 24 21 19 16 13 10 6
4 3 3 11 6 10 8 13 20 20 21 15 17 22 2 3 7 9 16 13 10 10 12 12 13 12 16 20 26 26 30 34 32 32 30 27 25 22 19 17 14 11 7 4
5 3 3 6 7 3 3 5 12 19 17 21 17 8 6 7 13 15 7 6 4 9 11 12 11 15 19 23 25 32 31 31 31 29 27 25 23 21 18 15 12 9 5 3
14 3 3 3 6 7 5 7 1 8 9 19 21 17 14 4 2 6 3 2 3 7 9 11 17 20 22 25 29 32 29 29 28 27 25 23 21 20 17 13 10 6 4 4
5 4 1 3 4 4 3 5 3 1 3 3 20 13 6 5 3 3 8 4 7 10 14 18 21 23 24 24 30 30 26 27 25 25 23 21 19 17 14 11 8 5 4 5
3 2 3 4 4 7 3 5 2 4 6 7 7 9 6 4 1 1 2 5 7 9 16 22 23 21 22 28 31 26 25 22 25 25 23 20 16 15 12 9 6 4 4 6
6 5 4 3 3 6 0 2 1 3 4 3 1 5 5 11 9 6 5 7 10 11 16 19 23 22 22 28 32 24 24 26 26 24 22 19 15 13 10 7 5 4 5 7
3 5 3 7 5 4 4 6 5 3 3 3 3 3 10 11 7 8 8 9 10 11 16 19 24 25 23 25 32 28 27 27 25 23 20 17 13 10 7 5 4 4 7 9
4 4 3 2 3 5 5 4 0 2 2 1 3 8 5 13 10 11 10 10 11 13 17 22 24 22 20 26 27 32 28 25 23 21 17 14 11 8 6 4 4 6 7 8
4 3 3 5 7 6 4 4 2 3 5 9 9 7 12 15 11 11 11 11 10 14 18 21 22 22 22 29 29 26 24 22 21 18 14 11 8 6 4 4 5 7 7 8
5 6 4 4 3 2 4 3 4 5 5 6 12 12 10 12 15 13 11 12 14 16 20 22 22 26 26 28 25 21 19 17 18 16 12 9 6 4 3 4 5 6 7 8
Wind_Direction
194 201 211 204 201 208 164 248 248 264 287 310 281 281 279 280 264 265 262 267 270 259 256 266 269 265 250 234 222 204 186 181 179 170 162 161 162 163 163 162 161 157 153 150
151 236 235 315 207 230 248 262 269 293 286 285 293 283 276 265 257 252 258 252 252 253 250 257 251 234 223 217 200 185 180 179 175 168 161 163 161 159 157 154 152 153 149 144
194 142 159 199 208 226 237 245 269 270 296 279 283 280 269 252 252 250 251 252 247 242 244 247 229 219 209 206 193 186 180 175 167 167 163 156 154 149 146 150 148 148 147 141
249 240 221 172 207 199 256 218 243 256 264 268 112 291 269 270 272 273 251 246 242 238 233 237 223 209 206 204 192 183 181 172 177 174 166 163 159 156 161 157 152 145 145 137
216 186 185 219 231 169 231 197 222 229 240 286 249 263 291 336 284 267 247 241 234 232 230 232 220 209 209 194 189 186 179 176 180 177 176 167 154 161 159 154 148 146 140 135
219 196 169 192 196 192 116 293 251 239 236 247 225 201 278 242 274 293 273 264 251 242 226 230 220 200 177 186 181 182 176 174 180 180 177 175 169 159 155 154 151 147 141 136
224 231 185 155 163 205 164 172 241 228 213 244 185 193 250 296 292 275 271 276 259 248 241 224 186 181 166 172 176 175 175 173 178 180 179 179 174 170 166 162 159 151 145 142
199 310 185 183 214 201 182 184 202 226 219 240 186 231 251 230 253 263 310 287 285 259 231 211 199 189 176 171 170 171 174 171 177 175 175 178 175 172 168 166 161 154 149 146
189 265 354 192 185 202 188 213 233 265 264 268 231 262 275 256 272 296 299 318 295 251 215 217 197 187 175 170 172 171 167 168 174 177 178 175 174 169 163 160 157 152 148 144
158 275 216 172 164 237 206 200 173 191 241 247 241 247 246 277 218 314 332 342 331 286 227 197 187 184 180 169 161 161 164 164 172 177 173 169 167 163 159 158 154 151 147 145
137 209 256 147 202 201 200 228 211 278 222 242 260 246 228 249 174 305 343 336 335 321 249 197 173 156 157 152 151 151 158 163 165 165 163 160 157 158 157 155 152 150 146 144
198 216 237 233 209 204 213 230 219 233 222 228 225 263 323 236 256 297 322 347 339 331 277 175 149 140 142 142 144 145 148 153 158 158 156 155 155 154 153 151 150 149 146 140
163 214 297 291 30 216 221 218 225 227 246 237 240 253 350 181 34 342 339 341 329 309 108 127 136 145 143 142 139 136 143 148 153 156 155 151 151 152 149 149 148 147 142 135
174 211 211 243 251 175 231 224 218 220 226 245 235 262 265 275 295 327 315 310 294 221 179 158 144 141 138 136 136 133 135 148 152 154 153 152 152 150 147 146 145 143 135 127
181 252 239 252 263 266 254 238 214 217 230 227 255 249 259 261 268 283 305 302 298 210 185 165 145 136 131 129 129 132 138 148 151 151 151 150 149 147 144 142 140 134 126 114
195 261 255 270 263 255 257 250 229 223 225 237 259 270 270 206 312 317 317 283 274 200 179 151 138 139 138 135 132 133 137 143 151 150 149 148 147 144 141 138 133 127 118 108
213 235 259 275 307 276 251 253 232 229 221 220 228 242 19 305 272 290 272 280 254 184 159 151 149 143 137 137 138 137 142 148 150 149 147 148 146 140 137 134 131 124 117 99
198 191 236 292 305 268 313 303 238 220 225 224 242 233 196 221 246 256 241 249 234 159 152 145 139 129 132 134 135 140 143 145 146 144 144 146 144 137 136 133 128 122 105 66
218 156 280 287 304 276 326 331 32 178 237 225 230 242 235 145 199 275 3 351 235 152 138 136 136 133 133 134 138 137 138 142 141 141 145 146 145 138 134 129 124 115 87 27
180 152 177 340 309 319 288 330 18 286 301 271 217 224 193 127 289 284 360 6 78 99 121 125 127 127 128 134 140 130 128 135 138 145 143 142 139 134 132 127 122 97 44 6
151 195 219 241 273 284 281 307 326 6 305 340 217 200 133 161 194 37 31 57 63 93 112 120 124 125 130 137 136 124 131 130 140 139 135 133 132 130 127 122 104 68 23 4
182 160 204 185 234 293 24 47 163 261 309 313 6 127 107 112 121 119 98 85 92 93 101 110 111 112 122 135 133 123 121 136 136 134 131 129 129 125 119 105 86 45 13 0
237 194 187 179 219 231 218 235 278 306 254 310 166 131 125 123 122 127 107 99 91 94 100 108 111 107 115 130 136 121 132 138 135 133 130 128 124 118 108 91 66 25 8 2
244 177 227 359 253 246 263 270 140 345 286 329 109 119 113 120 121 109 102 94 88 95 105 112 110 105 101 126 130 131 138 139 138 130 129 127 121 112 94 68 43 16 2 352
210 139 208 256 281 287 269 214 101 71 77 85 71 91 119 118 105 111 99 94 96 105 104 107 108 107 108 124 126 133 138 140 132 130 128 122 117 104 77 40 23 9 356 345
187 194 178 226 243 156 280 90 122 115 108 102 111 101 97 115 114 109 98 105 115 109 108 101 103 108 116 123 126 132 137 141 135 128 126 119 109 83 39 17 4 10 360 347